EA4TN Weather Reports


time (UTC)temp
C
wind
direction
speed
KPH
gust
KPH
rain 1hr
cm
rain 24hr
cm
rain mn
cm
humidity
%
barometer
mb
20260507161017 11 65 8.0 12.9 0.13 1.17 1.17 86 1009.3
20260507160018 11 99 4.8 20.9 0.10 1.14 1.14 88 1009.8
20260507155017 11 113 11.3 17.7 0.08 1.12 1.12 89 1010.3
20260507154017 11 273 3.2 9.7 0.05 1.09 1.09 93 1010.5
20260507153017 11 272 4.8 11.3 0.05 1.09 1.09 93 1010.5
20260507152017 11 336 6.4 14.5 0.00 1.04 1.04 94 1010.2
20260507151017 11 357 8.0 16.1 0.00 1.04 1.04 93 1010.0
20260507150017 11 10 8.0 17.7 0.00 1.04 1.04 93 1010.2
20260507145037 11 23 9.7 20.9 0.00 1.04 1.04 92 1010.2
20260507144017 12 39 9.7 19.3 0.00 1.04 1.04 93 1010.0
20260507143017 12 35 11.3 22.5 0.03 1.04 1.04 94 1010.1
20260507142037 12 34 11.3 20.9 0.15 1.04 1.04 94 1009.9
20260507141017 12 45 8.0 16.1 0.20 1.04 1.04 94 1009.8
20260507140017 12 49 8.0 16.1 0.23 1.04 1.04 95 1009.8
20260507135017 11 62 8.0 20.9 0.33 1.04 1.04 95 1009.7
20260507134017 10 49 14.5 20.9 1.04 1.04 1.04 95 1009.7
20260507133017 9 30 6.4 24.1 1.02 1.02 1.02 93 1010.0
20260507132017 8 23 16.1 29.0 0.89 0.89 0.89 93 1009.7
20260507131017 9 21 9.7 17.7 0.84 0.84 0.84 92 1010.2
20260507130017 10 37 9.7 19.3 0.81 0.81 0.81 90 1009.9
20260507125037 12 358 9.7 27.4 0.71 0.71 0.71 77 1010.1
20260507124017 14 117 4.8 20.9 0.00 0.00 0.00 67 1009.6
20260507123037 14 102 11.3 22.5 0.00 0.00 0.00 67 1009.6
20260507122017 15 98 9.7 22.5 0.00 0.00 0.00 65 1010.0
20260507121017 15 64 8.0 16.1 0.00 0.00 0.00 65 1010.0
20260507120017 15 73 4.8 11.3 0.00 0.00 0.00 68 1009.9
20260507115017 15 117 3.2 14.5 0.00 0.00 0.00 68 1009.9
20260507114017 16 101 4.8 9.7 0.00 0.00 0.00 68 1010.3
20260507113037 17 46 3.2 6.4 0.00 0.00 0.00 64 1010.3
20260507112017 17 95 1.6 8.0 0.00 0.00 0.00 61 1010.4
20260507111017 17 32 1.6 8.0 0.00 0.00 0.00 61 1010.7
20260507110037 17 6 3.2 8.0 0.00 0.00 0.00 62 1010.8
20260507105017 17 41 4.8 9.7 0.00 0.00 0.00 62 1010.9
20260507104017 17 71 3.2 6.4 0.00 0.00 0.00 63 1011.0
20260507103017 16 112 1.6 6.4 0.00 0.00 0.00 63 1011.2
20260507102017 16 59 1.6 4.8 0.00 0.00 0.00 65 1011.3
20260507101015 16 55 3.2 9.7 0.00 0.00 0.00 66 1011.4
20260507100017 15 39 3.2 8.0 0.00 0.00 0.00 68 1011.3
20260507095015 15 54 4.8 9.7 0.00 0.00 0.00 68 1011.4
20260507094017 15 49 4.8 8.0 0.00 0.00 0.00 69 1011.4
20260507093015 15 45 3.2 9.7 0.00 0.00 0.00 69 1011.5
20260507092017 15 64 3.2 8.0 0.00 0.00 0.00 69 1011.5
20260507091017 14 17 3.2 9.7 0.00 0.00 0.00 71 1011.5
20260507090017 14 34 3.2 8.0 0.00 0.00 0.00 71 1011.6
20260507085017 13 49 3.2 11.3 0.00 0.00 0.00 73 1011.4
20260507084037 13 31 3.2 9.7 0.00 0.00 0.00 74 1011.4
20260507083017 13 35 3.2 9.7 0.00 0.00 0.00 75 1011.4
20260507082017 12 358 3.2 8.0 0.00 0.00 0.00 77 1011.5
20260507081017 12 343 1.6 6.4 0.00 0.00 0.00 80 1011.6
20260507080015 12 274 1.6 6.4 0.00 0.00 0.00 80 1011.5
20260507075016 12 67 4.8 16.1 0.00 0.00 0.00 80 1011.1
20260507074035 12 74 6.4 14.5 0.00 0.00 0.00 77 1011.3
20260507073015 11 52 6.4 11.3 0.00 0.00 0.00 77 1011.3
20260507072015 11 46 6.4 11.3 0.00 0.00 0.00 77 1011.3
20260507071035 11 41 4.8 9.7 0.00 0.00 0.00 77 1011.8
20260507070015 11 65 3.2 9.7 0.00 0.00 0.00 78 1011.8
20260507065015 11 45 6.4 9.7 0.00 0.00 0.00 77 1011.7
20260507064015 11 43 6.4 9.7 0.00 0.00 0.00 77 1011.6
20260507063015 11 49 6.4 11.3 0.00 0.00 0.00 77 1011.3
20260507062035 11 44 6.4 11.3 0.00 0.00 0.00 78 1011.2
20260507061035 11 40 6.4 12.9 0.00 0.00 0.00 78 1011.3
20260507060015 11 55 6.4 11.3 0.00 0.00 0.00 78 1011.2
20260507055015 11 45 6.4 12.9 0.00 0.00 0.00 78 1011.0
20260507054015 11 43 8.0 14.5 0.00 0.00 0.00 78 1011.0
20260507053015 11 41 6.4 11.3 0.00 0.00 0.00 77 1011.0
20260507052015 11 51 6.4 12.9 0.00 0.00 0.00 77 1011.0
20260507051035 11 48 4.8 9.7 0.00 0.00 0.00 77 1011.0
20260507050015 11 47 4.8 11.3 0.00 0.00 0.00 77 1011.0
20260507045035 11 49 6.4 9.7 0.00 0.00 0.00 76 1011.0
20260507044015 11 47 6.4 9.7 0.00 0.00 0.00 76 1010.8
20260507043035 11 40 4.8 11.3 0.00 0.00 0.00 76 1010.8
20260507042015 11 48 4.8 14.5 0.00 0.00 0.00 75 1010.7
20260507041055 11 42 6.4 12.9 0.00 0.00 0.00 75 1010.7
20260507040015 11 48 4.8 9.7 0.00 0.00 0.00 74 1010.9
20260507035015 11 41 3.2 6.4 0.00 0.00 0.00 74 1011.0
20260507034015 12 37 4.8 8.0 0.00 0.00 0.00 73 1010.8
20260507033035 12 64 1.6 4.8 0.00 0.00 0.00 73 1010.9
20260507032015 12 48 3.2 8.0 0.00 0.00 0.00 73 1010.9
20260507031015 12 68 3.2 6.4 0.00 0.00 0.00 73 1010.8
20260507030035 12 18 3.2 8.0 0.00 0.00 0.00 73 1010.7
20260507025015 12 22 3.2 8.0 0.00 0.00 0.00 73 1010.7
20260507024015 12 23 3.2 8.0 0.00 0.00 0.00 73 1010.8
20260507023015 12 40 3.2 4.8 0.00 0.00 0.00 73 1010.7
20260507022015 12 53 3.2 9.7 0.00 0.00 0.00 73 1010.7
20260507021015 12 33 4.8 8.0 0.00 0.00 0.00 72 1010.9
20260507020015 12 33 4.8 16.1 0.00 0.00 0.00 72 1010.8
20260507015015 12 49 4.8 8.0 0.00 0.00 0.00 68 1010.7
20260507014016 12 49 3.2 9.7 0.00 0.00 0.00 67 1010.8
20260507013015 12 44 1.6 4.8 0.00 0.00 0.00 66 1010.7
20260507012035 12 42 3.2 4.8 0.00 0.00 0.00 65 1010.9
20260507011016 12 67 3.2 4.8 0.00 0.00 0.00 65 1010.9
20260507010015 12 43 3.2 6.4 0.00 0.00 0.00 63 1010.8
20260507005015 12 38 3.2 8.0 0.00 0.00 0.00 61 1010.8
20260507004015 12 75 3.2 9.7 0.00 0.00 0.00 60 1010.9
20260507003015 12 49 4.8 9.7 0.00 0.00 0.00 61 1010.9
20260507002015 12 57 4.8 11.3 0.00 0.00 0.00 59 1010.9
20260507001015 12 64 4.8 14.5 0.00 0.00 0.00 58 1010.9
20260507000015 12 53 8.0 16.1 0.00 0.00 0.00 57 1011.0
20260506235037 12 82 8.0 16.1 0.00 0.00 0.00 55 1011.0
20260506234057 13 52 8.0 14.5 0.00 0.00 0.00 54 1010.7
20260506233017 13 64 6.4 12.9 0.00 0.00 0.00 53 1010.5
20260506232017 13 47 8.0 14.5 0.00 0.00 0.00 52 1010.4
20260506231037 13 64 4.8 9.7 0.00 0.00 0.00 51 1010.4
20260506230017 13 49 6.4 14.5 0.00 0.00 0.00 50 1010.3
20260506225015 13 50 6.4 12.9 0.00 0.00 0.00 49 1010.4
20260506224017 14 53 6.4 14.5 0.00 0.00 0.00 48 1010.4
20260506223017 14 74 4.8 9.7 0.00 0.00 0.00 48 1010.3
20260506222017 14 75 6.4 9.7 0.00 0.00 0.00 48 1010.3
20260506221017 14 51 4.8 8.0 0.00 0.00 0.00 46 1010.1
20260506220017 14 50 4.8 6.4 0.00 0.00 0.00 46 1010.2
20260506215017 15 56 1.6 3.2 0.00 0.00 0.00 45 1010.3
20260506214017 15 56 1.6 4.8 0.00 0.00 0.00 44 1010.2
20260506213017 15 56 3.2 3.2 0.00 0.00 0.00 43 1010.3
20260506212017 15 55 1.6 3.2 0.00 0.00 0.00 42 1010.2
20260506211017 15 54 1.6 4.8 0.00 0.00 0.00 42 1010.1
20260506210017 15 68 1.6 1.6 0.00 0.00 0.00 42 1010.1
20260506205017 15 68 1.6 1.6 0.00 0.00 0.00 42 1010.0
20260506204035 15 68 0.0 1.6 0.00 0.00 0.00 40 1009.9
20260506203017 15 68 1.6 1.6 0.00 0.00 0.00 40 1009.9
20260506202015 16 68 1.6 1.6 0.00 0.00 0.00 40 1010.0
20260506201037 16 68 1.6 1.6 0.00 0.00 0.00 39 1009.8
20260506200015 16 68 0.0 1.6 0.00 0.00 0.00 38 1009.7
20260506195017 16 68 1.6 3.2 0.00 0.00 0.00 37 1009.6
20260506194017 17 68 1.6 3.2 0.00 0.00 0.00 36 1009.5
20260506193017 17 68 1.6 3.2 0.00 0.00 0.00 35 1009.7
20260506192017 18 68 1.6 3.2 0.00 0.00 0.00 34 1009.6
20260506191037 18 68 1.6 4.8 0.00 0.00 0.00 33 1009.5
20260506190018 19 73 3.2 4.8 0.00 0.00 0.00 31 1009.5
20260506185017 20 63 1.6 4.8 0.00 0.00 0.00 29 1009.7
20260506184037 21 314 0.0 3.2 0.00 0.00 0.00 28 1009.7
20260506183017 20 314 0.0 3.2 0.00 0.00 0.00 29 1009.5
20260506182017 20 313 1.6 6.4 0.00 0.00 0.00 29 1009.4
20260506181055 20 103 1.6 4.8 0.00 0.00 0.00 29 1009.4
20260506180015 20 114 3.2 8.0 0.00 0.00 0.00 30 1009.3
20260506175015 20 34 4.8 8.0 0.00 0.00 0.00 30 1009.6
20260506174015 20 51 3.2 8.0 0.00 0.00 0.00 30 1009.6
20260506173015 20 15 3.2 6.4 0.00 0.00 0.00 29 1009.7
20260506172015 20 19 3.2 8.0 0.00 0.00 0.00 29 1009.7
20260506171015 21 320 3.2 8.0 0.00 0.00 0.00 29 1009.7
20260506170015 21 270 3.2 9.7 0.00 0.00 0.00 29 1009.7
20260506165015 21 64 3.2 9.7 0.00 0.00 0.00 29 1009.9
20260506164015 21 111 3.2 8.0 0.00 0.00 0.00 30 1010.0
20260506163015 21 58 3.2 8.0 0.00 0.00 0.00 31 1010.0
20260506162055 20 15 3.2 12.9 0.00 0.00 0.00 31 1010.0